Total_Precipitation_Accumulation
1.43 1.39 1.24 1.22 1.14 1.01 0.96 0.91 0.85 0.79 0.71 0.64 0.55 0.49 0.48 0.51 0.49 0.49 0.46 0.42 0.50 0.77 1.10 1.26 1.27 1.31 1.35 1.40 1.41 1.34 1.25 1.19 1.10 1.03 0.98 0.95 0.95 0.96 0.95 0.93 0.91 0.92 0.93
1.59 1.46 1.32 1.28 1.23 1.09 0.99 0.98 0.92 0.90 0.84 0.76 0.66 0.57 0.49 0.49 0.48 0.49 0.48 0.46 0.47 0.58 0.84 1.12 1.27 1.44 1.58 1.67 1.62 1.54 1.43 1.38 1.31 1.23 1.14 1.05 1.01 0.98 0.98 0.97 0.94 0.93 0.95
1.80 1.71 1.51 1.35 1.29 1.28 1.24 1.19 1.14 1.02 0.92 0.84 0.77 0.70 0.62 0.57 0.52 0.48 0.49 0.47 0.46 0.48 0.61 0.89 1.15 1.36 1.58 1.74 1.75 1.69 1.58 1.46 1.43 1.38 1.28 1.16 1.06 1.01 1.00 0.99 0.99 0.99 1.00
2.01 1.93 1.78 1.59 1.50 1.50 1.48 1.37 1.24 1.17 1.01 0.88 0.81 0.76 0.68 0.63 0.57 0.52 0.49 0.46 0.43 0.40 0.47 0.65 0.87 1.11 1.38 1.60 1.73 1.76 1.70 1.55 1.45 1.43 1.33 1.24 1.19 1.15 1.14 1.13 1.11 1.12 1.13
2.25 2.05 1.85 1.75 1.76 1.72 1.60 1.52 1.37 1.33 1.26 1.07 0.92 0.83 0.78 0.71 0.64 0.59 0.54 0.50 0.46 0.41 0.41 0.49 0.63 0.74 0.98 1.32 1.60 1.82 1.88 1.79 1.65 1.55 1.48 1.40 1.35 1.34 1.32 1.31 1.31 1.30 1.35
2.67 2.45 2.05 1.90 1.94 1.95 1.86 1.73 1.63 1.50 1.43 1.40 1.25 1.00 0.85 0.80 0.75 0.68 0.62 0.56 0.52 0.46 0.43 0.44 0.50 0.55 0.66 0.92 1.29 1.62 1.89 1.98 1.88 1.75 1.66 1.61 1.56 1.52 1.52 1.54 1.56 1.57 1.60
2.73 2.85 2.54 2.23 2.17 2.13 2.10 2.05 2.02 1.92 1.71 1.66 1.65 1.38 1.07 0.91 0.83 0.74 0.69 0.68 0.61 0.57 0.55 0.51 0.52 0.54 0.59 0.76 0.98 1.20 1.50 1.82 1.95 1.93 1.83 1.77 1.76 1.75 1.79 1.82 1.82 1.78 1.78
2.80 2.85 2.92 2.70 2.39 2.31 2.31 2.30 2.22 2.08 2.00 1.96 1.89 1.79 1.58 1.35 1.04 0.84 0.77 0.72 0.68 0.68 0.68 0.66 0.64 0.64 0.65 0.73 0.79 0.89 1.07 1.40 1.75 1.97 1.98 1.91 1.87 1.88 1.99 2.11 2.19 2.19 2.13
2.94 2.86 2.82 2.85 2.72 2.54 2.44 2.45 2.50 2.48 2.34 2.24 2.12 2.16 1.89 1.56 1.24 1.01 0.91 0.85 0.83 0.81 0.77 0.78 0.80 0.79 0.77 0.77 0.74 0.77 0.86 1.08 1.42 1.86 2.17 2.27 2.22 2.22 2.31 2.41 2.48 2.58 2.56
3.03 2.94 2.92 2.90 2.86 2.75 2.57 2.54 2.62 2.67 2.69 2.60 2.45 2.25 2.00 1.66 1.52 1.27 1.04 1.00 1.04 1.03 0.99 0.93 0.91 0.89 0.88 0.85 0.83 0.84 0.89 0.97 1.28 1.73 2.23 2.58 2.70 2.84 3.01 3.03 3.10 3.18 3.10
3.18 3.06 2.98 2.96 2.95 2.88 2.79 2.73 2.71 2.73 2.74 2.71 2.65 2.48 2.29 1.94 1.65 1.54 1.31 1.15 1.20 1.16 1.15 1.10 1.04 0.99 0.97 0.95 0.91 0.96 1.09 1.14 1.36 1.72 2.22 2.76 3.10 3.31 3.51 3.62 3.69 3.73 3.72
3.03 2.96 2.97 2.91 2.86 2.81 2.72 2.68 2.69 2.68 2.70 2.63 2.53 2.40 2.33 2.16 1.89 1.78 1.60 1.37 1.36 1.33 1.33 1.29 1.21 1.13 1.08 1.02 1.00 1.20 1.20 1.24 1.43 1.71 2.14 2.66 3.02 3.29 3.48 3.66 3.79 3.82 3.90
2.70 2.65 2.72 2.79 2.78 2.72 2.70 2.65 2.62 2.53 2.56 2.59 2.49 2.33 2.19 1.96 1.82 1.87 1.87 1.67 1.49 1.35 1.36 1.37 1.32 1.32 1.30 1.27 1.27 1.43 1.33 1.37 1.45 1.70 2.07 2.45 2.58 2.68 2.83 3.01 3.28 3.42 3.51
2.49 2.48 2.53 2.62 2.71 2.74 2.69 2.70 2.63 2.49 2.44 2.42 2.39 2.32 2.25 2.06 1.88 1.83 1.86 1.94 1.89 1.62 1.43 1.31 1.26 1.37 1.46 1.51 1.60 1.71 1.44 1.59 1.58 1.64 1.87 2.09 2.14 2.07 2.15 2.38 2.66 2.88 3.03
2.35 2.39 2.49 2.50 2.50 2.56 2.55 2.55 2.54 2.39 2.28 2.23 2.17 2.20 2.19 2.09 2.00 1.89 1.87 2.00 2.27 2.22 1.82 1.47 1.41 1.48 1.57 1.62 1.76 1.63 1.39 1.60 1.66 1.63 1.69 1.75 1.79 1.75 1.75 1.89 2.09 2.29 2.42
2.10 2.15 2.25 2.33 2.34 2.35 2.43 2.48 2.38 2.23 2.16 2.02 1.92 1.96 2.00 2.00 2.04 2.04 2.02 2.04 2.18 2.36 2.16 1.61 1.45 1.48 1.57 1.61 1.75 1.58 1.47 1.68 1.59 1.54 1.54 1.56 1.55 1.54 1.53 1.59 1.74 1.90 2.08
1.92 1.89 1.98 2.05 2.06 2.04 2.09 2.19 2.19 2.14 2.11 2.03 1.93 1.83 1.77 1.81 1.95 2.01 2.10 2.13 2.16 2.25 2.24 1.74 1.44 1.39 1.48 1.48 1.47 1.38 1.37 1.39 1.35 1.49 1.43 1.41 1.43 1.42 1.40 1.44 1.52 1.64 1.77
1.82 1.79 1.82 1.90 1.92 1.89 1.88 1.92 1.92 1.92 1.96 1.95 1.93 1.90 1.81 1.80 1.92 2.00 2.10 2.13 2.08 2.02 2.03 1.84 1.51 1.37 1.34 1.30 1.28 1.25 1.21 1.20 1.20 1.42 1.42 1.38 1.39 1.37 1.32 1.32 1.39 1.47 1.56
1.73 1.77 1.73 1.76 1.78 1.82 1.85 1.84 1.84 1.83 1.80 1.80 1.87 1.93 1.88 1.91 1.95 1.94 1.94 1.92 1.86 1.77 1.73 1.68 1.49 1.33 1.30 1.29 1.32 1.26 1.17 1.12 1.09 1.24 1.31 1.32 1.38 1.41 1.36 1.35 1.39 1.41 1.41
1.58 1.66 1.65 1.62 1.66 1.72 1.78 1.81 1.87 1.93 1.90 1.85 1.85 1.89 1.90 1.91 1.86 1.85 1.85 1.79 1.75 1.74 1.69 1.68 1.57 1.43 1.34 1.29 1.35 1.35 1.28 1.16 1.12 1.08 1.20 1.23 1.30 1.40 1.42 1.33 1.23 1.22 1.21
1.50 1.54 1.59 1.57 1.59 1.69 1.79 1.83 1.83 1.91 2.01 1.99 1.92 1.85 1.80 1.90 1.89 1.84 1.80 1.78 1.83 1.91 1.88 1.83 1.71 1.53 1.35 1.28 1.25 1.18 1.21 1.20 1.16 1.10 1.16 1.15 1.14 1.12 1.17 1.26 1.28 1.26 1.29
1.54 1.57 1.63 1.66 1.66 1.70 2.03 2.10 2.00 1.95 1.97 1.95 1.87 1.76 1.70 1.79 1.76 1.81 1.84 1.84 1.93 2.05 2.14 2.05 1.83 1.55 1.22 1.06 1.06 1.18 1.33 1.44 1.40 1.11 1.10 1.05 0.99 1.06 1.04 1.07 1.26 1.31 1.33
1.64 1.71 1.77 1.81 1.84 1.90 2.05 1.96 1.96 1.82 1.78 1.75 1.66 1.57 1.50 1.45 1.52 1.37 1.52 1.67 1.70 1.83 1.90 1.84 1.69 1.35 1.15 1.07 1.23 1.41 1.40 1.40 1.24 1.06 1.20 1.28 1.12 1.07 1.00 1.09 1.27 1.19 1.19
1.75 1.84 1.93 1.93 1.88 1.90 1.89 1.71 1.71 1.58 1.50 1.43 1.38 1.34 1.32 1.27 1.28 1.34 1.38 1.48 1.40 1.34 1.30 1.25 1.23 1.16 1.16 1.22 1.41 1.62 1.64 1.60 1.35 1.16 1.20 1.40 1.23 1.12 1.01 1.05 1.20 1.15 1.17
1.77 1.78 1.79 1.74 1.64 1.58 1.60 1.45 1.40 1.30 1.32 1.26 1.17 1.16 1.18 1.14 1.33 1.55 1.57 1.55 1.35 1.22 1.23 1.28 1.34 1.38 1.50 1.56 1.59 1.77 1.90 2.01 1.82 1.40 1.21 1.26 1.16 1.10 1.09 1.07 1.10 1.19 1.13
1.50 1.41 1.33 1.28 1.21 1.13 1.22 1.25 1.28 1.17 1.16 1.12 1.10 1.09 1.23 1.23 1.43 1.62 1.58 1.60 1.48 1.22 1.19 1.24 1.23 1.23 1.22 1.32 1.53 1.56 1.79 2.18 1.99 1.64 1.19 1.26 1.29 1.39 1.62 1.22 1.05 1.03 1.04